• In Deutschland
  • Länderverzeichnis
  • Für 7 Tage
  • Wassertemperatur
  • Satellitenkarten
  • Wetterkarte
  • Widgets
  • user-avatar
    Anmelden

    Stündliche Wetter Bad Teinach-Zavelstein

    Heute, 14 Dezember, Donnerstag

    Zeit Temperatur Niederschläge Wind Luftdruck Luftfeuchtigkeit
    00:00 +1°C° 0,6 mm 8 m/S 696 mmHg 81%
    01:00 +3°C° 0 mm 7 m/S 695 mmHg 82%
    02:00 +3°C° 1 mm 7 m/S 695 mmHg 84%
    03:00 +3°C° 1 mm 7 m/S 695 mmHg 85%
    04:00 +3°C° 1 mm 7 m/S 695 mmHg 86%
    05:00 +2°C° 0,7 mm 7 m/S 696 mmHg 82%
    06:00 0°C° 0,7 mm 8 m/S 697 mmHg 78%
    07:00 0°C° 0 mm 5 m/S 697 mmHg 74%
    08:00 -1°C° 0 mm 6 m/S 698 mmHg 75%
    09:00 -1°C° 0 mm 6 m/S 699 mmHg 76%
    10:00 -1°C° 0 mm 6 m/S 699 mmHg 76%
    11:00 0°C° 0 mm 7 m/S 699 mmHg 75%
    12:00 0°C° 0 mm 7 m/S 699 mmHg 73%
    13:00 +2°C° 0 mm 7 m/S 699 mmHg 71%
    14:00 +2°C° 0,1 mm 7 m/S 698 mmHg 73%
    15:00 +1°C° 0,1 mm 6 m/S 698 mmHg 74%
    16:00 +1°C° 0,1 mm 5 m/S 697 mmHg 76%
    17:00 +1°C° 0,1 mm 5 m/S 697 mmHg 78%
    18:00 +1°C° 0,1 mm 4 m/S 696 mmHg 81%
    19:00 0°C° 0,1 mm 4 m/S 695 mmHg 84%
    20:00 0°C° 0,6 mm 4 m/S 695 mmHg 85%
    21:00 +1°C° 0,6 mm 4 m/S 694 mmHg 87%
    22:00 +1°C° 0,6 mm 4 m/S 694 mmHg 88%
    23:00 +1°C° 0,9 mm 4 m/S 693 mmHg 89%

    Morgen, 15 Dezember, Freitag

    Zeit Temperatur Niederschläge Wind Luftdruck Luftfeuchtigkeit
    00:00 +1°C° 0,9 mm 4 m/S 693 mmHg 89%
    01:00 0°C° 0,9 mm 4 m/S 693 mmHg 90%
    02:00 0°C° 0,6 mm 4 m/S 693 mmHg 88%
    03:00 0°C° 0,6 mm 5 m/S 694 mmHg 86%
    04:00 0°C° 0,6 mm 5 m/S 695 mmHg 84%
    05:00 -1°C° 0,1 mm 5 m/S 695 mmHg 84%
    06:00 -1°C° 0,1 mm 5 m/S 696 mmHg 84%
    07:00 -2°C° 0,1 mm 5 m/S 697 mmHg 84%
    08:00 -1°C° 0,1 mm 5 m/S 697 mmHg 82%
    09:00 -1°C° 0,1 mm 5 m/S 697 mmHg 81%
    10:00 -2°C° 0,1 mm 6 m/S 697 mmHg 79%
    11:00 -1°C° 0,1 mm 6 m/S 697 mmHg 78%
    12:00 -1°C° 0,1 mm 6 m/S 697 mmHg 78%
    13:00 +1°C° 0,1 mm 6 m/S 697 mmHg 77%
    14:00 0°C° 0,2 mm 5 m/S 698 mmHg 79%
    15:00 0°C° 0,2 mm 4 m/S 698 mmHg 81%
    16:00 +1°C° 0,2 mm 3 m/S 698 mmHg 83%
    17:00 0°C° 0,2 mm 3 m/S 698 mmHg 85%
    18:00 +1°C° 0,2 mm 2 m/S 698 mmHg 87%
    19:00 -1°C° 0,2 mm 2 m/S 699 mmHg 88%
    20:00 -1°C° 0,3 mm 2 m/S 699 mmHg 89%
    21:00 +1°C° 0,3 mm 1 m/S 699 mmHg 90%
    22:00 +1°C° 0,3 mm 1 m/S 699 mmHg 91%
    23:00 +1°C° 0,3 mm 1 m/S 700 mmHg 92%

    übermorgen, 16 Dezember, Samstag

    Zeit Temperatur Niederschläge Wind Luftdruck Luftfeuchtigkeit
    00:00 +1°C° 0,3 mm 1 m/S 700 mmHg 92%
    01:00 +1°C° 0,3 mm 1 m/S 700 mmHg 93%
    02:00 +1°C° 0 mm 1 m/S 701 mmHg 94%
    03:00 0°C° 0 mm 1 m/S 701 mmHg 95%
    04:00 0°C° 0 mm 1 m/S 701 mmHg 95%
    05:00 0°C° 0 mm 1 m/S 702 mmHg 95%
    06:00 0°C° 0 mm 1 m/S 702 mmHg 95%
    07:00 0°C° 0 mm 1 m/S 703 mmHg 95%
    08:00 0°C° 0,1 mm 1 m/S 703 mmHg 93%
    09:00 -2°C° 0,1 mm 2 m/S 704 mmHg 92%
    10:00 -1°C° 0,1 mm 2 m/S 705 mmHg 91%
    11:00 -1°C° 0,2 mm 2 m/S 705 mmHg 90%
    12:00 0°C° 0,2 mm 3 m/S 706 mmHg 88%
    13:00 0°C° 0,2 mm 3 m/S 706 mmHg 87%
    14:00 0°C° 0,3 mm 3 m/S 706 mmHg 88%
    15:00 0°C° 0,3 mm 3 m/S 707 mmHg 88%
    16:00 -1°C° 0,3 mm 3 m/S 707 mmHg 89%
    17:00 -1°C° 0,2 mm 3 m/S 708 mmHg 90%
    18:00 -1°C° 0,2 mm 3 m/S 708 mmHg 91%
    19:00 -2°C° 0,2 mm 2 m/S 709 mmHg 92%
    20:00 -2°C° 0 mm 2 m/S 709 mmHg 92%
    21:00 -2°C° 0 mm 2 m/S 710 mmHg 92%
    22:00 -3°C° 0 mm 2 m/S 710 mmHg 93%
    23:00 -3°C° 0 mm 2 m/S 711 mmHg 93%

    17 Dezember, Sonntag

    Zeit Temperatur Niederschläge Wind Luftdruck Luftfeuchtigkeit
    00:00 -4°C° 0 mm 3 m/S 711 mmHg 93%
    01:00 -4°C° 0 mm 3 m/S 712 mmHg 93%
    02:00 -4°C° 0,1 mm 3 m/S 712 mmHg 93%
    03:00 -4°C° 0,1 mm 3 m/S 712 mmHg 93%
    04:00 -4°C° 0,1 mm 3 m/S 713 mmHg 93%
    05:00 -4°C° 0,1 mm 3 m/S 713 mmHg 93%
    06:00 -4°C° 0,1 mm 3 m/S 714 mmHg 93%
    07:00 -4°C° 0,1 mm 3 m/S 714 mmHg 92%
    08:00 -4°C° 0,1 mm 3 m/S 715 mmHg 91%
    09:00 -4°C° 0,1 mm 3 m/S 715 mmHg 90%
    10:00 -4°C° 0,1 mm 3 m/S 716 mmHg 89%
    11:00 -2°C° 0,1 mm 3 m/S 716 mmHg 88%
    12:00 -3°C° 0,1 mm 4 m/S 716 mmHg 87%
    13:00 -3°C° 0,1 mm 4 m/S 717 mmHg 86%
    14:00 -2°C° 0,1 mm 3 m/S 717 mmHg 87%
    15:00 -2°C° 0,1 mm 3 m/S 717 mmHg 88%
    16:00 -2°C° 0,1 mm 3 m/S 717 mmHg 88%
    17:00 -2°C° 0,1 mm 3 m/S 718 mmHg 89%
    18:00 -2°C° 0,1 mm 3 m/S 718 mmHg 89%
    19:00 -4°C° 0,1 mm 3 m/S 718 mmHg 90%
    20:00 -4°C° 0 mm 3 m/S 719 mmHg 90%
    21:00 -4°C° 0 mm 3 m/S 719 mmHg 89%
    22:00 -4°C° 0 mm 3 m/S 719 mmHg 89%
    23:00 -4°C° 0 mm 3 m/S 719 mmHg 88%

    18 Dezember, Montag

    Zeit Temperatur Niederschläge Wind Luftdruck Luftfeuchtigkeit
    00:00 -4°C° 0 mm 3 m/S 719 mmHg 88%
    01:00 -4°C° 0 mm 4 m/S 719 mmHg 87%
    02:00 -4°C° 0,1 mm 4 m/S 719 mmHg 87%
    03:00 -4°C° 0,1 mm 4 m/S 719 mmHg 87%
    04:00 -5°C° 0,1 mm 5 m/S 718 mmHg 86%
    05:00 -4°C° 0,4 mm 5 m/S 718 mmHg 87%
    06:00 -4°C° 0,4 mm 6 m/S 717 mmHg 87%
    07:00 -3°C° 0,4 mm 6 m/S 717 mmHg 87%
    08:00 -3°C° 1 mm 7 m/S 716 mmHg 88%
    09:00 -2°C° 1 mm 7 m/S 716 mmHg 88%
    10:00 -2°C° 1 mm 8 m/S 716 mmHg 89%
    11:00 -2°C° 1,9 mm 7 m/S 715 mmHg 89%
    12:00 -1°C° 1,9 mm 7 m/S 715 mmHg 90%
    13:00 -1°C° 1,9 mm 7 m/S 715 mmHg 91%
    14:00 -1°C° 2 mm 6 m/S 715 mmHg 92%
    15:00 -1°C° 2 mm 6 m/S 715 mmHg 93%
    16:00 0°C° 2 mm 5 m/S 715 mmHg 94%
    17:00 0°C° 0,6 mm 4 m/S 715 mmHg 95%
    18:00 +1°C° 0,6 mm 3 m/S 716 mmHg 96%
    19:00 +2°C° 0,6 mm 2 m/S 716 mmHg 96%
    20:00 +1°C° 0,1 mm 2 m/S 716 mmHg 96%
    21:00 +1°C° 0,1 mm 2 m/S 717 mmHg 96%
    22:00 +1°C° 0,1 mm 2 m/S 717 mmHg 95%
    23:00 +2°C° 0 mm 1 m/S 718 mmHg 95%

    19 Dezember, Dienstag

    Zeit Temperatur Niederschläge Wind Luftdruck Luftfeuchtigkeit
    00:00 +1°C° 0 mm 1 m/S 718 mmHg 96%
    01:00 +1°C° 0 mm 1 m/S 718 mmHg 96%
    02:00 0°C° 0 mm 1 m/S 719 mmHg 96%
    03:00 0°C° 0 mm 1 m/S 719 mmHg 96%
    04:00 0°C° 0 mm 1 m/S 719 mmHg 96%
    05:00 0°C° 0 mm 1 m/S 719 mmHg 96%
    06:00 0°C° 0 mm 1 m/S 720 mmHg 96%
    07:00 -1°C° 0 mm 0 m/S 720 mmHg 95%
    08:00 -1°C° 0 mm 0 m/S 720 mmHg 95%
    09:00 -1°C° 0 mm 0 m/S 721 mmHg 94%
    10:00 0°C° 0 mm 0 m/S 721 mmHg 94%
    11:00 0°C° 0 mm 0 m/S 721 mmHg 92%
    12:00 +2°C° 0 mm 1 m/S 721 mmHg 91%
    13:00 +2°C° 0 mm 1 m/S 721 mmHg 90%
    14:00 +2°C° 0 mm 1 m/S 721 mmHg 91%
    15:00 +1°C° 0 mm 0 m/S 721 mmHg 92%
    16:00 0°C° 0 mm 0 m/S 721 mmHg 93%
    17:00 +1°C° 0 mm 1 m/S 721 mmHg 93%
    18:00 0°C° 0 mm 1 m/S 721 mmHg 93%
    19:00 0°C° 0 mm 1 m/S 721 mmHg 93%
    20:00 0°C° 0 mm 1 m/S 721 mmHg 92%
    21:00 0°C° 0 mm 1 m/S 721 mmHg 92%
    22:00 0°C° 0 mm 1 m/S 721 mmHg 92%
    23:00 -1°C° 0 mm 1 m/S 721 mmHg 91%
    Mehr zeigen